This demonstration page uses our WeatherBlox Daily Observations layout. Learn more.

Left ArrowRight Arrow

Hourly Observations for May 6, 2018

Temp ( °F °C ) Dew Point ( °F °C ) Humidity (%) Winds ( mph kmh ) Pressure ( in mb ) Visibility ( mi km ) Precip ( " mm )
12:53 am 00:53 Clear 58 14.4 45 7.2 62 62 NW 3 6 30.03 1017 10 16 0.00 0.00
1:53 am 01:53 Clear 58 14.4 47 8.3 67 67 Calm 30.03 1017 10 16 0.00 0.00
2:53 am 02:53 Clear 56 13.3 45 7.2 67 67 Calm 30.03 1017 10 16 0.00 0.00
3:53 am 03:53 Mostly Clear 55 12.8 48 8.9 77 77 NW 5 7 30.05 1018 10 16 0.00 0.00
4:53 am 04:53 Clear 55 12.8 47 8.3 74 74 NW 5 7 30.06 1018 10 16 0.00 0.00
5:53 am 05:53 Clear 54 12.2 46 7.8 75 75 W 7 11 30.06 1018 10 16 0.00 0.00
6:53 am 06:53 Sunny 53 11.7 47 8.3 80 80 NNW 3 6 30.07 1018 10 16 0.00 0.00
7:53 am 07:53 Sunny 62 16.7 48 8.9 60 60 NNW 9 15 30.09 1019 10 16 0.00 0.00
8:53 am 08:53 Sunny 65 18.3 48 8.9 54 54 N 12 19 30.09 1019 10 16 0.00 0.00
9:53 am 09:53 Sunny 70 21.1 49 9.4 47 47 NNW 12 19 30.11 1020 10 16 0.00 0.00
10:53 am 10:53 Sunny 74 23.3 50 10 43 43 N 14 22 30.12 1020 10 16 0.00 0.00
11:53 am 11:53 Sunny 77 25 48 8.9 36 36 NNE 16 26 30.13 1020 10 16 0.00 0.00
12:53 pm 12:53 Sunny 78 25.6 47 8.3 33 33 NNE 17 28 30.13 1020 10 16 0.00 0.00
1:53 pm 13:53 Sunny 79 26.1 46 7.8 31 31 NE 14 22 30.12 1020 10 16 0.00 0.00
2:53 pm 14:53 Sunny 78 25.6 45 7.2 31 31 N 12 19 30.11 1020 10 16 0.00 0.00
3:53 pm 15:53 Sunny 78 25.6 46 7.8 32 32 NNE 14 22 30.11 1020 10 16 0.00 0.00
4:53 pm 16:53 Mostly Cloudy with Light Rain 76 24.4 44 6.7 32 32 NNE 16 26 30.12 1020 10 16 0.00 0.03
5:53 pm 17:53 Partly Cloudy 75 23.9 44 6.7 33 33 N 12 19 30.13 1020 10 16 0.00 0.03
6:53 pm 18:53 Partly Cloudy 75 23.9 45 7.2 34 34 N 8 13 30.13 1020 10 16 0.00 0.03
7:53 pm 19:53 Sunny 73 22.8 47 8.3 40 40 N 5 7 30.12 1020 10 16 0.00 0.00
8:53 pm 20:53 Clear 68 20 45 7.2 44 44 NNW 3 6 30.12 1020 10 16 0.00 0.00
9:53 pm 21:53 Clear 61 16.1 48 8.9 63 63 ENE 6 9 30.13 1020 10 16 0.00 0.00
10:53 pm 22:53 Clear 61 16.1 46 7.8 58 58 NE 3 6 30.14 1021 10 16 0.00 0.00
11:53 pm 23:53 Clear 59 15 46 7.8 62 62 E 5 7 30.15 1021 10 16 0.00 0.00

Powered by AerisWeather